Location: Alafon
(8.4500°N, 4.2333°E)
Time: 07:33:05
(UTC+00:00)

Vanguard 2 - Pass Details

Date: 05 August 2021
Orbit: 553 x 2937 km, 32.9° (Epoch: 24 September)

Event Time Altitude Azimuth Distance (km) Brightness Sun altitude
Rises 20:59:25 0° 214° (SW) 5,941 12.1 -41.1°
Reaches altitude 10° 21:05:00 10° 202° (SSW) 4,488 11.3 -42.3°
Enters shadow 21:05:22 11° 201° (SSW) 4,396 11.2 -42.3°
Maximum altitude 21:13:23 23° 156° (SSE) 2,806 - -44.0°
Drops below altitude 10° 21:19:18 10° 106° (ESE) 3,066 - -45.2°
Sets 21:22:14 0° 91° (E) 3,714 - -45.8°
